This is the latest recevied weather packets stored in our database for station/object KC2TER. If no packets are shown the sender has not sent any weather packets the latest 10 day(s).
| Time | Temp. | Humidity | Pressure | Rain* | Wind** | Luminosity | Snow |
|---|---|---|---|---|---|---|---|
| 1777919476 | 22.22° C | 35% | 1011.1 hPa | 0 mm | - | 805 W/m² | - |
| 1777919174 | 22.78° C | 35% | 1011 hPa | 0 mm | - | 822 W/m² | - |
| 1777918871 | 22.22° C | 36% | 1011.3 hPa | 0 mm | - | 832 W/m² | - |
| 1777918568 | 21.67° C | 36% | 1011.1 hPa | 0 mm | - | 835 W/m² | - |
| 1777918266 | 21.67° C | 37% | 1011.4 hPa | 0 mm | - | 854 W/m² | - |
| 1777917964 | 21.67° C | 36% | 1011.4 hPa | 0 mm | - | 858 W/m² | - |
| 1777917663 | 21.67° C | 36% | 1011.5 hPa | 0 mm | - | 865 W/m² | - |
| 1777917360 | 22.22° C | 37% | 1011.6 hPa | 0 mm | - | 880 W/m² | - |
| 1777917056 | 22.22° C | 37% | 1011.4 hPa | 0 mm | - | 842 W/m² | - |
| 1777916755 | 21.67° C | 36% | 1011.6 hPa | 0 mm | - | 821 W/m² | - |
| 1777916451 | 21.67° C | 37% | 1011.6 hPa | 0 mm | - | 837 W/m² | - |
| 1777916148 | 21.67° C | 36% | 1011.7 hPa | 0 mm | - | 820 W/m² | - |
| 1777915846 | 21.11° C | 36% | 1011.9 hPa | 0 mm | - | 820 W/m² | - |
| 1777915541 | 21.67° C | 36% | 1011.9 hPa | 0 mm | - | 820 W/m² | - |
| 1777915238 | 21.67° C | 38% | 1011.9 hPa | 0 mm | - | 820 W/m² | - |
| 1777914935 | 21.11° C | 39% | 1011.9 hPa | 0 mm | - | 799 W/m² | - |
| 1777914632 | 21.11° C | 37% | 1012.2 hPa | 0 mm | - | 783 W/m² | - |
| 1777914328 | 21.11° C | 36% | 1012 hPa | 0 mm | - | 791 W/m² | - |
| 1777914026 | 21.11° C | 37% | 1012.2 hPa | 0 mm | - | 800 W/m² | - |
| 1777913721 | 21.11° C | 37% | 1012.1 hPa | 0 mm | - | 780 W/m² | - |
| 1777913418 | 21.11° C | 37% | 1012.3 hPa | 0 mm | - | 777 W/m² | - |
| 1777913115 | 20.56° C | 36% | 1012.4 hPa | 0 mm | - | 760 W/m² | - |
| 1777912811 | 20.56° C | 36% | 1012.6 hPa | 0 mm | - | 764 W/m² | - |
| 1777912507 | 21.11° C | 37% | 1012.4 hPa | 0 mm | - | 780 W/m² | - |
| 1777912204 | 20.56° C | 36% | 1012.5 hPa | 0 mm | - | 786 W/m² | - |
* Rain latest hour (hover to see other rain measurements)
** Current wind speed in m/s (hover to see current wind gust speed)